User: anonymous   Login
Location: Colebrook
(42.0017°N, 73.0973°W)
Time: 04:36:59
(UTC-04:00)
Language:

Transit 2A Rocket - Orbit

View from above orbital plane
View from above orbital plane
View from above satellite
View from above satellite

Ground track
Ground track

The orbit data is extracted from the following two-line orbital elements,

1 00047U 60007C   21293.66920993  .00000085  00000-0  43543-4 0  9991
2 00047  66.6645 284.1550 0233710 303.5445  54.3530 14.42182238205362
Epoch (UTC): 20 October 2021 16:03:39
Eccentricity: 0.0233710
inclination: 66.6645°
perigee height: 584 km
apogee height: 918 km
right ascension of ascending node: 284.1550°
argument of perigee: 303.5445°
revolutions per day: 14.42182238
mean anomaly at epoch: 54.3530°
orbit number at epoch: 20536

The dashed part of the orbit path shows where the satellite is in the earth's shadow,  

DLR